Home   Weather   Nanpara   Past weeks
Flag for India

Past Weather in Nanpara, Uttar Pradesh, India — Yesterday and Last 2 Weeks

Now
102 °F

Haze.


Feels Like: 100 °F
Forecast: 110 / 76 °F
Wind: 8 mph from Northwest

Location: Lucknow / Amausi

Current Time: May 20, 2019 at 12:06:47 pm

Latest Report: May 20, 2019 at 11:30 am


Visibility: 2 mi

Pressure: 29.77 "Hg

Humidity: 20%

Dew Point: 54 °F

Location of NanparaLocation

Past Weather in Nanpara — Graph

°F

Nanpara Temperature Yesterday

Maximum temperature yesterday: 100 °F (at 2:30 pm)
Minimum temperature yesterday: 75 °F (at 5:30 am)
Average temperature yesterday: 89 °F

High & Low Weather Summary for the Past Weeks

 TemperatureHumidityPressure
High109 °F (May 8, 1:30 pm)69% (May 18, 4:30 am)29.77 "Hg (May 18, 4:30 am)
Low73 °F (May 18, 5:00 am)8% (May 6, 1:00 pm)29.50 "Hg (May 9, 3:30 pm)
Average92 °F29%29.65 "Hg
* Reported May 5 10:30 am — May 20 10:30 am, Nanpara. Weather by CustomWeather, © 2019

Note: Actual official high and low records may vary slightly from our data, if they occured in-between our weather recording intervals... More about our weather records

Advertising

Nanpara Weather History for the Previous 24 Hours

Scroll right to see more
 ConditionsComfort  
Time TempWeatherWind HumidityBarometerVisibility
10:30 am
Mon, May 20
100 °FHaze.7 mph21%29.77 "Hg2 mi
10:00 am97 °FHaze.6 mph25%29.77 "Hg2 mi
9:30 am97 °FHaze.6 mph27%29.77 "Hg2 mi
9:00 am95 °FHaze.6 mph28%29.77 "Hg2 mi
8:30 am93 °FHaze.6 mph32%29.77 "Hg2 mi
8:00 am90 °FHaze.5 mph38%29.77 "Hg2 mi
7:30 am86 °FHaze.3 mph46%29.77 "Hg2 mi
7:00 am82 °FHaze.2 mph51%29.77 "Hg2 mi
6:30 am79 °FHaze.2 mph58%29.74 "Hg2 mi
6:00 am77 °FHaze.No wind57%29.74 "Hg2 mi
5:30 am77 °FHaze.No wind57%29.74 "Hg2 mi
5:00 am77 °FHaze.No wind57%29.74 "Hg2 mi
4:30 am79 °FHaze.2 mph54%29.71 "Hg2 mi
4:00 am79 °FHaze.2 mph54%29.71 "Hg2 mi
3:30 am81 °FHaze.2 mph51%29.71 "Hg2 mi
3:00 am82 °FHaze.2 mph45%29.71 "Hg2 mi
2:00 am86 °FHaze.2 mph40%29.74 "Hg2 mi
1:30 am86 °FHaze.2 mph40%29.74 "Hg2 mi
1:00 am86 °FHaze.5 mph40%29.74 "Hg2 mi
12:30 am86 °FHaze.6 mph38%29.74 "Hg2 mi
12:00 am88 °FHaze.5 mph38%29.74 "Hg2 mi
11:30 pm
Sun, May 19
86 °FHaze.3 mph38%29.74 "Hg2 mi
11:00 pm86 °FHaze.2 mph38%29.74 "Hg2 mi
10:30 pm86 °FHaze.2 mph38%29.74 "Hg2 mi
10:00 pm88 °FHaze.2 mph38%29.74 "Hg2 mi
9:00 pm90 °FHaze.3 mph33%29.71 "Hg2 mi
8:30 pm90 °FHaze.3 mph33%29.71 "Hg2 mi
8:00 pm91 °FHaze.7 mph32%29.71 "Hg2 mi
7:30 pm93 °FHaze.7 mph32%29.68 "Hg2 mi
7:00 pm93 °FHaze.7 mph32%29.68 "Hg2 mi
6:30 pm95 °FHaze.8 mph30%29.68 "Hg2 mi
5:30 pm99 °FHaze.10 mph27%29.65 "Hg2 mi
5:00 pm99 °FHaze.9 mph24%29.65 "Hg2 mi
4:30 pm99 °FHaze.9 mph24%29.65 "Hg2 mi
4:00 pm100 °FHaze.8 mph24%29.65 "Hg2 mi
3:30 pm100 °FHaze.9 mph24%29.68 "Hg2 mi
3:00 pm99 °FHaze.7 mph24%29.68 "Hg2 mi
2:30 pm100 °FHaze.8 mph24%29.68 "Hg2 mi
2:00 pm99 °FHaze.9 mph25%29.68 "Hg2 mi
1:30 pm99 °FHaze.9 mph25%29.71 "Hg2 mi
1:00 pm99 °FHaze.14 mph27%29.71 "Hg2 mi
12:30 pm97 °FHaze.5 mph28%29.71 "Hg2 mi
12:00 pm97 °FHaze.8 mph27%29.74 "Hg2 mi
Weather by CustomWeather, © 2019

See weather overview